{"data":{"norad_id":58909,"intl_designator":"2024-023E","name":"GEESAT-2 05","alt_names":[],"object_type":"PAYLOAD","status":"ACTIVE","operator":null,"country":"PRC","launch_date":"2024-02-02","launch_site_code":"XICLF","launch_vehicle":null,"mission":null,"orbit_class":"UNKNOWN","rcs_meters":null,"size_class":null,"mass_kg":null,"dimensions":null,"purposes":[],"wikipedia_slug":null,"has_3d_model":false,"image_url":null,"decayed_at":null,"tle_current":{"epoch":"2026-05-25T04:24:00.194112Z","epoch_age_seconds":62735,"freshness":"FRESH","line1":"1 58909U 24023E   26145.18333558  .00001458  00000+0  20423-3 0  9997","line2":"2 58909  50.0045 100.8607 0011424 335.1410  24.8977 14.83165138125508","mean_motion":14.83165138,"eccentricity":0.0011424,"inclination_deg":50.0045,"raan_deg":100.8607,"arg_perigee_deg":335.141,"mean_anomaly_deg":24.8977,"bstar":0.00020423,"rev_number":12550,"period_min":97.089660692928,"perigee_km":611.35717340984,"apogee_km":627.34503422945,"semimajor_km":6997.4881038196,"source":"CELESTRAK","updated_at":"2026-05-25T13:38:01.048786Z"}}}